sat.trackr.live / text

‹ back to catalog

STARLINK-36638

NORAD 67594 · 2026-018F

PAYLOAD ACTIVE UNKNOWN

§ Identity

Operator
Country
US
Launch date
2026-01-29
Launch site
AFWTR
Launch vehicle
Mass (kg)
RCS (m²)

Purposes: comms

External: N2YO · Heavens-Above · Gunter

§ Orbital elements

Epoch: 2026-09-19T02:51:26.296704Z

Period
93.91 min
Inclination
97.2858°
Eccentricity
0.0000434
Mean motion
15.33450937 rev/d
Perigee alt
465.2 km
Apogee alt
465.8 km
Semi-major
6,843.7 km
B*
4.1093e-4
RAAN
325.5183°
Arg perigee
86.9909°
Mean anomaly
273.1383°
Rev number
3,697

§ Raw data

STARLINK-366381 67594U 26018F   26262.11905436  .00013217  00000+0  41093-3 0  99982 67594  97.2858 325.5183 0000434  86.9909 273.1383 15.33450937 36973

JSON: /api/v1/satellites/67594 · /tle

For live sub-satellite position, see the globe view (requires WebGL).

§ Visibility from observer

Set your observer location to see the next 7 days of passes ≥ 10°. The values pass through the URL so the page stays shareable.

No JS? Fill the form by hand. The geolocation button needs JavaScript.